Weather in Yasnaya Polyana

Russia / Orenburg Oblast     51°43′02″N   53°04′42″E
temp.,
°C
wind,
m/s
gust,
m/s
humid.,
%
clouds,
%
prec.,
mm/h
press.,
hPa
HPBL,
m
1 march, mon
mon123:00−13wnw489596 0.2 1012269
02:00−14wnw3696100 0.1 1013154
05:00−14nw239591 0.3 101561
08:00−15nw369690 0.2 1017161
11:00−14nw359287 0.3 1019266
14:00−13nw359083 0.0 1020326
17:00−14wnw359274 0.0 1021311
20:00−19wnw349621 0.0 102234
2 march, tue
tue223:00−21wnw239611 0.0 102321
02:00−22w33993 0.0 102322
05:00−22sw3310037 0.0 102221
08:00−21ssw3610093 0.1 1020127
11:00−15ssw699697 0.1 1018325
14:00−10ssw71294100 0.3 1014518
17:00−5sw81495100 1.6 1012831
20:00−3sw81595100 1.3 1009820
3 march, wed
wed323:00−3sw81496100 2.4 1006740
02:00−3sw71396100 1.1 1004623
05:00−2sw61197100 2.1 1004510
08:00−2wsw4897100 1.4 1003361
11:00−2w3497100 1.7 1004239
14:00−1nw2499100 0.3 1004315
17:00−2wnw349295 0.4 1004308
20:00−7wnw449493 0.0 100575
4 march, thu
thu423:00−10nw339671 0.0 100729
02:00−9wnw369680 0.0 1008125
05:00−12nw479459 0.1 100996
08:00−14wnw34965 0.0 101148
11:00−11w479320 0.0 1013256
14:00−8wsw599371 0.0 1013381
17:00−5wsw7119385 0.1 1012596
20:00−5sw71394100 0.2 1012829
5 march, fri
fri523:00−3sw81593100 0.4 1011860
02:00−2sw91691100 0.2 1009861
05:00−2sw101789100 0.2 1008733
08:00−2sw101889100 0.0 1008725
11:00−2wsw101695100 0.4 1009756
14:000wsw81397100 0.4 1010810
17:000wsw71199100 1.3 1012659
20:000wsw61098100 0.7 1013531